Precipitable_Water
0.42 0.40 0.39 0.38 0.38 0.38 0.38 0.37 0.37 0.36 0.35 0.35 0.35 0.36 0.36 0.36 0.36 0.37 0.37 0.35 0.34 0.33
0.38 0.38 0.38 0.39 0.39 0.37 0.35 0.35 0.35 0.35 0.36 0.38 0.40 0.39 0.38 0.37 0.35 0.35 0.33 0.32 0.31 0.30
0.36 0.35 0.35 0.34 0.33 0.32 0.33 0.33 0.33 0.34 0.35 0.37 0.36 0.35 0.35 0.34 0.34 0.32 0.31 0.30 0.29 0.29
0.36 0.34 0.33 0.31 0.30 0.29 0.30 0.30 0.30 0.30 0.31 0.32 0.31 0.31 0.31 0.30 0.30 0.28 0.28 0.28 0.28 0.27
0.32 0.31 0.30 0.28 0.28 0.29 0.30 0.29 0.29 0.30 0.28 0.27 0.27 0.27 0.26 0.26 0.26 0.26 0.26 0.26 0.26 0.26
0.31 0.31 0.29 0.28 0.28 0.31 0.31 0.29 0.28 0.26 0.25 0.25 0.25 0.25 0.25 0.25 0.25 0.25 0.25 0.25 0.25 0.25
0.29 0.29 0.28 0.28 0.28 0.28 0.28 0.27 0.25 0.24 0.24 0.24 0.23 0.23 0.23 0.23 0.23 0.23 0.24 0.24 0.25 0.25
0.28 0.28 0.28 0.28 0.28 0.28 0.26 0.24 0.23 0.22 0.22 0.22 0.22 0.22 0.21 0.22 0.22 0.23 0.23 0.24 0.24 0.25
0.29 0.29 0.29 0.28 0.27 0.25 0.23 0.22 0.22 0.22 0.21 0.21 0.21 0.21 0.23 0.24 0.24 0.24 0.24 0.23 0.24 0.25
0.29 0.29 0.28 0.26 0.24 0.22 0.21 0.21 0.20 0.20 0.20 0.19 0.20 0.21 0.22 0.24 0.24 0.25 0.25 0.24 0.24 0.24
0.28 0.25 0.23 0.22 0.21 0.21 0.21 0.20 0.19 0.18 0.18 0.18 0.18 0.20 0.21 0.22 0.24 0.23 0.23 0.23 0.23 0.23
0.23 0.21 0.20 0.19 0.19 0.18 0.17 0.16 0.15 0.16 0.16 0.16 0.17 0.19 0.20 0.21 0.22 0.21 0.21 0.21 0.21 0.22
0.19 0.17 0.15 0.15 0.15 0.15 0.15 0.15 0.16 0.16 0.17 0.17 0.17 0.19 0.20 0.21 0.20 0.19 0.19 0.20 0.21 0.22
0.15 0.14 0.14 0.14 0.15 0.15 0.15 0.15 0.16 0.16 0.16 0.16 0.17 0.17 0.19 0.21 0.21 0.21 0.20 0.20 0.20 0.23
Wind_Speed
29 29 29 29 30 30 31 31 32 33 33 34 34 35 35 35 36 36 37 37 38 38
29 29 29 29 29 29 28 28 29 30 31 32 33 34 35 36 37 37 38 39 40 40
29 29 30 30 31 31 31 31 31 31 31 32 33 34 35 36 38 39 40 40 41 41
29 29 30 30 30 30 30 31 32 33 34 35 35 36 37 38 39 39 40 41 41 42
29 29 30 30 30 30 30 31 33 34 35 36 37 38 39 39 40 41 41 42 42 43
30 30 31 30 30 31 33 34 35 36 37 38 38 39 39 40 40 41 41 42 43 43
30 31 32 32 33 34 36 37 37 37 38 38 39 39 40 40 40 41 41 41 41 42
30 31 32 34 35 35 35 35 35 36 36 37 37 38 38 38 39 39 40 41 41 42
27 28 29 30 31 32 32 33 33 33 34 35 35 36 36 37 37 38 38 38 39 39
26 27 28 28 29 30 31 32 32 33 33 33 33 34 34 35 35 35 35 36 36 37
25 26 27 28 29 30 30 30 30 31 31 32 32 32 33 33 33 33 34 34 35 35
24 25 26 27 28 28 28 29 30 30 31 31 31 32 32 32 32 33 33 33 34 34
22 23 25 26 27 28 29 29 29 30 30 31 31 32 32 32 32 33 33 34 34 35
22 23 25 26 27 27 28 29 29 30 31 31 32 32 32 32 32 33 33 33 34 34
Wind_Direction
242 245 247 250 252 254 256 257 257 258 259 260 260 261 261 261 262 262 262 262 263 263
243 245 248 250 252 255 256 257 259 260 260 262 262 262 262 263 263 263 264 264 264 264
246 248 250 253 255 257 258 258 260 262 264 264 265 265 265 265 265 265 265 265 265 265
249 251 253 254 256 258 260 261 264 264 266 267 268 268 268 267 267 267 267 266 266 265
251 252 253 254 256 259 263 265 267 268 269 270 270 269 269 269 268 268 267 267 266 266
252 253 255 256 258 262 266 268 270 270 271 271 271 271 270 270 269 269 268 268 267 267
254 256 256 257 261 266 269 270 270 271 271 271 272 271 271 270 270 269 269 269 268 267
255 257 259 261 264 268 269 270 271 271 272 272 272 271 271 270 270 270 270 270 269 268
255 259 261 263 266 268 269 270 271 272 273 273 273 272 271 271 270 270 270 270 270 269
258 261 263 266 268 269 270 271 272 272 273 274 274 273 272 271 271 271 271 271 270 270
262 264 265 267 269 271 272 272 272 272 273 273 274 273 273 272 272 271 271 271 271 271
265 266 267 269 271 272 272 273 273 274 274 274 274 274 274 273 272 272 272 272 272 271
268 269 271 272 273 274 274 274 275 275 275 275 275 275 275 274 273 273 273 273 273 273
273 274 275 276 276 276 276 276 277 277 277 277 276 276 275 274 273 273 274 274 274 274